Regional Weather Roundup
Issued by NWS Newport/Morehead, NC

Current Version | Previous Version | Graphics & Text | Print | Product List | Glossary Off
Versions: 1 2 3 4 5 6 7 8 9 10 11 12 13 14 15 16 17 18 19 20 21 22 23 24 25 26 27 28 29 30 31 32 33 34 35 36 37 38 39 40 41 42 43 44 45 46 47 48 49 50

000
ASUS42 KMHX 290825
RWRMHX
WEATHER ROUNDUP FOR EASTERN NORTH CAROLINA
NATIONAL WEATHER SERVICE NEWPORT/MOREHEAD CITY NC
400 AM EDT WED MAR 29 2017

NOTE: "FAIR" INDICATES FEW OR NO CLOUDS BELOW 12,000 FEET
WITH NO SIGNIFICANT WEATHER AND/OR OBSTRUCTIONS TO VISIBILITY

NCZ015>017-031-032-045>047-102-103-290900-
NORTH COAST

CITY           SKY/WX    TMP DP  RH WIND       PRES   REMARKS
EDENTON        NOT AVBL
ELIZABETH CITY CLEAR     60  57  89 N9        29.93R
KITTY HAWK     NOT AVBL
MANTEO         CLEAR     58  58  99 N6        29.92R

$$

NCZ045>047-081-094-103-104-290900-
CENTRAL COAST

CITY           SKY/WX    TMP DP  RH WIND       PRES   REMARKS
FRISCO         CLEAR     62  59  90 NW3       29.90R FOG

$$

NCZ095-097-098-100-101-290900-
SOUTHERN COAST

CITY           SKY/WX    TMP DP  RH WIND       PRES   REMARKS
BEAUFORT       PTCLDY    62  62 100 NW6       29.91S
CEDAR ISLAND   NOT AVBL
JACKSONVILLE   PTCLDY    56  56 100 CALM      29.92S
PINEY ISLAND   NOT AVBL
WILMINGTON     CLEAR     59  59 100 CALM      29.92S


$$

NCZ011>013-027>030-043-044-078>080-089-090>093-098-290900-
COASTAL PLAIN

CITY           SKY/WX    TMP DP  RH WIND       PRES   REMARKS
AHOSKIE        NOT AVBL
CLINTON        PTCLDY    58  58 100 CALM      29.95S
ELIZABETHTOWN  CLEAR     60  57  89 CALM      29.95R
GOLDSBORO      PTCLDY    58  58 100 NW3       29.92S
GREENVILLE       N/A     54  52  94 CALM      29.95S FOG
HAVELOCK       FOG       58  56  93 CALM      29.92F VSB 1
KENANSVILLE    CLEAR     59  59 100 CALM      29.94S
KINSTON        CLOUDY    58  58 100 CALM      29.94S
NEW BERN       FOG       51  51 100 CALM      29.93S VSB 1/4
RICHLANDS      PTCLDY    59  59 100 CALM      29.93S
ROCKY MOUNT    CLEAR     59  53  80 N6        29.94R
WASHINGTON     FOG       55  55  99 CALM      29.93S VSB 1/4
WHITEVILLE     CLEAR     63  54  71 CALM      29.94S

$$

AMZ130-135-150-152-154-156-158-170-250-252-270-ANZ085-086-088-633-658-670-290900-
MARINE OBSERVATIONS

STATION/POSITION TIME  TEMP    WIND        PRES    WAVE   SWELL
                       AIR SEA DIR/SP/G            HT/PER HT/PER
                 (UTC) (F)     (DEG/KT/KT) (MB)    (FT/S) (FT/S)
CHESAPEAKE LIGHT NOT AVBL
64 E VA BEACH    0750   49 48   10/ 16/ 19 1012.8    4/10   3/10
DUCK             0800   53 47  360/  8/  9 1012.8
2 E DUCK         0800      49                N/A     3/10   2/11
OREGON INLET     0800   59 59  350/  6/  9 1012.5
13E OREGON INLT  0748      53                N/A     3/ 9   3/ 9
HATTERAS CG      0800   61 63  290/  4/  5 1012.2
DIAMOND BUOY     0750   67 74  330/ 12/ 16 1012.4    6/10   5/10
CAPE LOOKOUT     0800   65     280/  2/  3 1012.5
BEAUFORT LAB     0800   61 62   10/  1/  2 1012.0
30 SE NEW RVR IN 0708   63     330/  6/ 12 1012.8
30 SE NEW RVR IN 0813      64                N/A     5/11   2/11
27 SE WRIGHTSVLE 0708   65 69  330/ 10/ 14 1012.5
5 SE WRIGHTSVLE  0708   60 58   10/  4/ 10 1013.0
225 S CAPE HAT   0750   71 72  220/ 14/ 17 1014.0    6/10   5/10
41 SE CHARLESTON 0750   69 71  240/ 16/ 19 1013.0    5/10   3/10

$$



USA.gov is the U.S. government's official web portal to all federal, state and local government web resources and services.